Terminal Aerodrome Forecast
Issued by NWS

Home | Current Version | Previous Version | Text Only | Print | Product List | Glossary Off
Versions: 1 2 3 4 5 6 7 8 9 10 11 12 13 14 15

000
FTUS43 KMPX 250800 AAA
TAFAXN
TAF AMD
KAXN 250823Z 2508/2606 21008KT 6SM BR SCT008 OVC025
      TEMPO 2508/2512 3SM -SN BR OVC015
     FM251200 VRB03KT 6SM BR OVC009
     FM251800 33004KT 4SM -SN BR OVC012=

USA.gov is the U.S. government's official web portal to all federal, state and local government web resources and services.